OBJECT F, 61232

Orbit data source: Space-Track

You're viewing an Uncataloged Satellite

Recently launched and/or uncataloged satellites may have evolving metadata. Metadata may include but not limited to: Owner, Maufacturer, Bus, Motor, and Mission.

OBJECT F, 61232 is a satellite owned by Guoxing (CN) in SSO that was launched on Tue, 24 Sep 2024 UTC via a JIELONG-3 launch vehicle from the Yellow Sea Launch Area, China (YSLA). Unknown objects in Earth's orbit typically refer to objects detected orbiting the Earth but have not yet been identified or cataloged. These objects could be anything from previously untracked satellites, spent rocket stages, debris from satellite collisions, or even natural meteoroids temporarily captured by Earth's gravity.

Loading next visibility...
Identifier
61232, 2024-173F
Orbit
SSO
Last TLE update
9 hours ago
Origin
Flag of CNGUOX (CN / PRC)
Manufacturer
GUOX/HISTAR
Mission
Operational Commercial Technology
Bus & Motor
XSD, Unknown motor
Mass
~25 kg wet, ~25 kg dry
Launch date (UTC)
2024-09-24 (10 months ago)
Launch vehicle
JIELONG-3
Launch site
Yellow Sea Launch Area, China (YSLA)
Object type
Unknown
Shape & HBR
Box + 3 Pan, 0.1 m
Radar Cross Section
0.135 m², Medium (>0.1 m² and < 1m²)

Expand to show TLE details & history

TLE from 9 hours ago
0 OBJECT F
1 61232U 24173F   25199.58510187  .00010772  00000-0  21258-3 0  9990
2 61232  97.3748 279.8288 0007044 290.6404  69.4090 15.47328976 45636
Epoch: 2025-07-18T14:02Z
TLE epoch observation values (Epoch: 2025-07-18T14:02:32.801Z)
Latitude
-0.00006°
Longitude
132.55769°
Altitude
425.989 km
Speed
7.657 km/s
True Right ascension
18h 39m 18s
True Declination
0° 00' 00"
Sunlit
Object was in full shadow at epoch
Visualization orbit readout
Latitude
3.29231°
Longitude
132.52943°
Altitude
425.971 km
Speed
7.657 km/s
Apparent Right ascension
20h 52m 02s
Apparent Declination
-22° 32' 50"
Sunlit
Object is in full shadow
Visualization observer readout
Local Sidereal Time
12:09:44
Azimuth
82.578° E
Elevation
-44.976°
Doppler factor
1
Orbital elements
Apogee altitude
426.261 km
Perigee altitude
416.682 km
Semi-major axis
6,799.609 km
Eccentricity
0.0007
Inclination
97.3748°
RAAN
279.8288°
Arg. of periapsis
290.6404°
True anomaly
69.48458°
Mean anomaly
69.409°
Eccentric anomaly
69.44679°
Mean motion
3.87095 °/min
Orbital period
93 mins
BSTAR
0.00021258
Loading maneuver chart data...
Loading SW <> Apogee altitude chart data...
Loading historical data...
Loading historical data...
Loading historical data...
Loading historical data...
Loading historical data...
Loading historical data...
Loading historical data...
|